Simultaneous Nadir Overpasses (SNOs) Predictions

Prediction of SNOs between METOP-A and NOAA-19 Satellite Orbit:

Table of predicted SNOs for the next 14.0 days since TLE Epoch: 11/29/2019
Index Date (METOP-A) Time (METOP-A) Lat,Lon (METOP-A) SZA (METOP-A ) Date (NOAA-19) Time (NOAA-19) Lat,Lon (NOAA-19) SZA (NOAA-19 ) Distance(km) Time Diff (sec)
1 12/09/2019 01:21:39 80.17, 172.95 103.22 12/09/2019 01:20:40 80.15, 172.84 103.18 3.41 59
2 12/09/2019 02:12:21 -80.15, -19.93 76.81 12/09/2019 02:11:39 -80.15, -19.91 76.82 0.63 42
3 12/09/2019 03:03:02 80.13, 147.18 103.17 12/09/2019 03:02:41 80.15, 147.26 103.19 2.81 21
4 12/09/2019 03:53:43 -80.14, -45.39 76.82 12/09/2019 03:53:40 -80.16, -45.50 76.81 2.65 3
5 12/09/2019 04:44:23 80.15, 122.03 103.20 12/09/2019 04:44:41 80.14, 121.99 103.19 1.48 18
6 12/09/2019 05:35:05 -80.13, -70.85 76.83 12/09/2019 05:35:40 -80.14, -70.78 76.81 1.74 35
7 12/09/2019 06:25:45 80.14, 96.57 103.19 12/09/2019 06:26:42 80.15, 96.40 103.20 3.25 57




NCC Satellite Simultaneous Nadir Overpasses (SNOs) Prediction Service
